Total_Precipitation_Accumulation
0.71 0.65 0.59 0.54 0.46 0.44 0.43 0.45 0.41 0.39 0.38 0.35 0.31 0.26 0.23 0.21 0.19 0.20 0.21 0.22 0.19 0.20 0.30 0.39 0.43 0.45 0.48 0.53 0.56 0.55 0.53 0.51 0.47 0.42 0.39 0.38 0.37 0.37 0.39 0.41 0.43 0.43 0.45
0.80 0.75 0.65 0.57 0.50 0.46 0.46 0.49 0.50 0.47 0.43 0.39 0.34 0.30 0.26 0.24 0.20 0.19 0.20 0.21 0.20 0.21 0.27 0.37 0.48 0.58 0.65 0.71 0.72 0.68 0.62 0.58 0.52 0.47 0.46 0.45 0.44 0.42 0.44 0.43 0.43 0.43 0.44
0.90 0.88 0.81 0.66 0.55 0.56 0.54 0.54 0.57 0.60 0.55 0.47 0.40 0.35 0.33 0.30 0.26 0.22 0.22 0.20 0.17 0.16 0.21 0.33 0.45 0.53 0.62 0.72 0.83 0.85 0.74 0.66 0.59 0.54 0.51 0.51 0.50 0.48 0.48 0.50 0.52 0.51 0.51
0.95 0.98 0.93 0.87 0.76 0.70 0.67 0.64 0.60 0.57 0.54 0.48 0.43 0.39 0.37 0.36 0.33 0.32 0.31 0.25 0.19 0.14 0.16 0.23 0.32 0.39 0.48 0.61 0.77 0.93 0.88 0.80 0.70 0.62 0.59 0.60 0.59 0.57 0.58 0.60 0.60 0.61 0.61
1.14 1.13 1.03 1.00 1.01 0.92 0.81 0.76 0.71 0.63 0.60 0.56 0.52 0.51 0.46 0.41 0.38 0.37 0.34 0.27 0.25 0.22 0.19 0.19 0.23 0.27 0.34 0.46 0.59 0.79 0.92 0.93 0.86 0.77 0.70 0.68 0.69 0.69 0.72 0.74 0.74 0.75 0.77
1.37 1.28 1.21 1.14 1.16 1.09 0.97 0.88 0.79 0.73 0.67 0.67 0.66 0.59 0.53 0.44 0.41 0.39 0.36 0.33 0.30 0.30 0.30 0.30 0.29 0.29 0.32 0.37 0.50 0.64 0.81 0.97 0.99 0.88 0.79 0.76 0.77 0.80 0.86 0.91 0.93 0.93 0.96
1.60 1.45 1.31 1.27 1.26 1.20 1.09 1.04 0.97 0.86 0.81 0.84 0.81 0.66 0.55 0.48 0.40 0.36 0.39 0.41 0.38 0.33 0.34 0.37 0.39 0.37 0.32 0.32 0.40 0.51 0.62 0.81 0.98 1.01 0.94 0.87 0.87 0.93 1.03 1.13 1.16 1.15 1.17
1.78 1.62 1.44 1.37 1.33 1.29 1.18 1.12 1.17 1.13 1.03 1.01 1.00 0.96 0.79 0.63 0.48 0.40 0.40 0.41 0.41 0.42 0.38 0.35 0.35 0.37 0.38 0.35 0.34 0.38 0.43 0.58 0.82 1.06 1.16 1.14 1.11 1.12 1.20 1.34 1.42 1.48 1.51
2.00 1.82 1.64 1.57 1.51 1.48 1.39 1.29 1.26 1.25 1.24 1.20 1.20 1.28 1.10 0.82 0.58 0.46 0.43 0.43 0.44 0.48 0.48 0.42 0.38 0.39 0.39 0.38 0.39 0.39 0.40 0.49 0.72 1.03 1.31 1.40 1.39 1.43 1.57 1.71 1.79 1.89 1.89
2.07 2.03 1.92 1.76 1.66 1.61 1.55 1.62 1.63 1.52 1.44 1.32 1.23 1.17 1.13 0.97 0.90 0.68 0.49 0.47 0.47 0.47 0.51 0.49 0.44 0.42 0.40 0.42 0.45 0.50 0.54 0.59 0.74 1.05 1.38 1.62 1.72 1.85 2.04 2.16 2.26 2.33 2.24
1.93 2.00 1.98 1.87 1.68 1.56 1.48 1.52 1.60 1.64 1.53 1.42 1.34 1.26 1.21 1.08 0.98 0.95 0.72 0.54 0.51 0.48 0.49 0.52 0.55 0.57 0.57 0.55 0.58 0.66 0.75 0.79 0.93 1.17 1.52 1.87 2.12 2.29 2.49 2.62 2.68 2.70 2.63
1.78 1.78 1.81 1.74 1.69 1.59 1.49 1.48 1.57 1.64 1.63 1.57 1.46 1.34 1.27 1.20 1.04 1.05 0.98 0.77 0.68 0.60 0.60 0.63 0.67 0.71 0.72 0.70 0.70 0.81 0.88 0.94 1.07 1.27 1.61 1.99 2.26 2.42 2.57 2.83 2.98 2.98 2.97
1.68 1.71 1.79 1.72 1.67 1.60 1.56 1.54 1.54 1.51 1.53 1.53 1.46 1.37 1.26 1.17 1.11 1.18 1.22 1.06 0.90 0.77 0.76 0.77 0.78 0.78 0.77 0.79 0.82 0.92 0.90 0.94 1.00 1.17 1.48 1.83 1.97 2.03 2.14 2.36 2.62 2.78 2.87
1.50 1.54 1.67 1.71 1.68 1.65 1.60 1.57 1.52 1.45 1.42 1.43 1.38 1.31 1.23 1.12 1.09 1.15 1.25 1.35 1.29 1.05 0.90 0.85 0.85 0.87 0.88 0.87 0.90 1.00 0.87 0.99 1.02 1.11 1.28 1.44 1.46 1.43 1.47 1.65 1.90 2.13 2.31
1.33 1.33 1.39 1.47 1.52 1.53 1.53 1.54 1.52 1.42 1.34 1.32 1.27 1.22 1.15 1.06 1.01 1.04 1.15 1.32 1.54 1.47 1.15 0.93 0.90 0.89 0.92 0.92 0.97 0.90 0.79 0.96 1.02 1.02 1.06 1.11 1.09 1.07 1.11 1.24 1.47 1.71 1.87
1.10 1.11 1.16 1.20 1.26 1.30 1.34 1.42 1.43 1.39 1.36 1.28 1.23 1.19 1.14 1.08 1.05 1.06 1.11 1.20 1.34 1.47 1.32 0.97 0.84 0.80 0.83 0.85 0.93 0.83 0.77 0.94 0.94 0.94 0.95 0.94 0.95 0.99 1.03 1.12 1.25 1.41 1.64
0.88 0.91 0.97 1.04 1.09 1.11 1.13 1.20 1.28 1.31 1.30 1.24 1.19 1.16 1.13 1.07 1.07 1.05 1.07 1.12 1.17 1.25 1.26 0.98 0.81 0.78 0.80 0.81 0.84 0.82 0.77 0.74 0.72 0.82 0.83 0.83 0.84 0.90 0.99 1.05 1.11 1.22 1.40
0.71 0.70 0.72 0.79 0.86 0.89 0.92 0.96 1.01 1.08 1.12 1.11 1.11 1.13 1.13 1.14 1.17 1.17 1.17 1.15 1.13 1.12 1.14 1.04 0.85 0.75 0.70 0.67 0.67 0.70 0.71 0.70 0.65 0.76 0.78 0.77 0.80 0.86 0.94 0.98 1.00 1.07 1.18
0.71 0.73 0.67 0.65 0.69 0.73 0.79 0.82 0.82 0.87 0.93 0.97 0.99 1.03 1.08 1.13 1.20 1.20 1.19 1.15 1.10 1.05 1.05 1.05 0.91 0.76 0.69 0.65 0.66 0.67 0.68 0.67 0.63 0.69 0.73 0.73 0.76 0.80 0.85 0.94 0.98 0.98 1.00
0.66 0.67 0.69 0.66 0.65 0.67 0.73 0.80 0.83 0.84 0.90 0.94 0.96 0.98 0.99 1.01 1.01 1.02 1.02 1.00 1.01 1.01 1.00 1.02 0.96 0.83 0.73 0.68 0.72 0.78 0.76 0.67 0.63 0.57 0.63 0.63 0.65 0.67 0.70 0.77 0.85 0.88 0.89
0.61 0.63 0.65 0.67 0.67 0.68 0.73 0.81 0.87 0.89 0.92 0.97 1.00 0.99 0.94 0.92 0.87 0.86 0.86 0.85 0.86 0.93 1.01 1.05 0.99 0.87 0.76 0.72 0.72 0.70 0.75 0.72 0.66 0.59 0.56 0.55 0.55 0.54 0.55 0.62 0.73 0.85 0.95
0.61 0.65 0.70 0.75 0.78 0.82 0.97 1.01 0.97 0.96 0.95 0.93 0.89 0.86 0.84 0.84 0.82 0.84 0.84 0.83 0.88 0.99 1.09 1.09 0.96 0.79 0.63 0.58 0.64 0.74 0.85 0.90 0.80 0.58 0.57 0.58 0.58 0.60 0.57 0.61 0.76 0.88 1.01
0.72 0.78 0.81 0.90 0.93 0.95 1.00 0.93 0.92 0.88 0.91 0.88 0.81 0.75 0.71 0.67 0.69 0.65 0.72 0.78 0.80 0.86 0.92 0.91 0.84 0.69 0.62 0.61 0.77 0.94 0.93 0.89 0.72 0.54 0.58 0.65 0.61 0.65 0.64 0.70 0.84 0.87 1.00
0.83 0.89 0.88 0.90 0.92 0.93 0.92 0.84 0.82 0.72 0.70 0.70 0.68 0.63 0.59 0.58 0.59 0.62 0.69 0.76 0.67 0.62 0.63 0.60 0.61 0.65 0.66 0.65 0.76 0.91 0.92 0.89 0.74 0.63 0.62 0.73 0.64 0.65 0.64 0.70 0.83 0.82 0.88
0.85 0.87 0.86 0.82 0.76 0.73 0.73 0.66 0.64 0.58 0.57 0.55 0.55 0.57 0.59 0.55 0.63 0.77 0.79 0.77 0.64 0.52 0.54 0.61 0.65 0.64 0.66 0.66 0.69 0.90 1.07 1.13 0.96 0.70 0.61 0.64 0.58 0.60 0.66 0.71 0.80 0.88 0.88
0.71 0.70 0.66 0.61 0.57 0.54 0.56 0.53 0.52 0.46 0.47 0.48 0.51 0.55 0.62 0.60 0.69 0.81 0.74 0.71 0.64 0.54 0.53 0.51 0.50 0.49 0.48 0.52 0.63 0.77 1.13 1.45 1.18 0.85 0.56 0.69 0.71 0.78 0.97 0.74 0.73 0.80 0.85